Mojave, CA

9:14 AM PDT on September 18, 2019 (GMT -0700)
Mojave

Weather History for KMHV - May, 2019

Change the Weather History Date:

Saturday, May 18, 2019

  Actual Average Record
Temperature  
Mean Temperature 58 °F -  
Max Temperature 71 °F 82 °F 96 °F (1970)
Min Temperature 44 °F 55 °F 36 °F (1977)
Degree Days  
Heating Degree Days 8    
Growing Degree Days 8 (Base 50)    
Moisture  
Dew Point 37 °F    
Average Humidity 49    
Maximum Humidity 72    
Minimum Humidity 19    
Precipitation  
Precipitation 0.00 in - - ()
Sea Level Pressure  
Sea Level Pressure 29.92 in    
Wind  
Wind Speed 11 mph (WSW)    
Max Wind Speed 23 mph    
Max Gust Speed 33 mph    
Visibility 10 miles    
Events      
Averages and records for this station are not official NWS values.
T = Trace of Precipitation, MM = Missing Value Source: NWS Daily Summary

Daily Weather History Graph

Daily Weather History Graph

Search for Another Location

Airport or City:

Astronomy

May. 18, 2019 Rise Set
Actual Time 5:46 AM PDT 7:51 PM PDT
Civil Twilight 5:18 AM PDT 8:20 PM PDT
Nautical Twilight 4:44 AM PDT 8:54 PM PDT
Astronomical Twilight 4:06 AM PDT 9:31 PM PDT
Moon 7:54 PM PDT 5:53 AM PDT
Length of Visible Light 15h 01m
Length of Day
14h 04m
Full, 100% of the Moon is Illuminated
May 18
Full
May 18
Full
May 26
Last Quarter
Jun 3
New
Jun 9
First Quarter

Hourly Weather History & Observations

Time (PDT) Temp. Windchill Dew Point Humidity Pressure Visibility Wind Dir Wind Speed Gust Speed Precip Events Conditions
12:00 AM 53.6 °F - 35.6 °F 51% 29.96 in 10.0 mi WNW 15.0 mph 23.0 mph N/A   Clear
12:20 AM 51.8 °F - 37.4 °F 58% 29.96 in 10.0 mi West 12.7 mph 23.0 mph N/A   Clear
12:40 AM 51.8 °F - 37.4 °F 58% 29.96 in 10.0 mi WNW 16.1 mph 21.9 mph N/A   Clear
1:00 AM 51.8 °F - 35.6 °F 54% 29.97 in 10.0 mi NNW 12.7 mph 20.7 mph N/A   Clear
1:20 AM 51.8 °F - 37.4 °F 58% 29.97 in 10.0 mi NW 17.3 mph - N/A   Clear
1:40 AM 50.0 °F - 37.4 °F 62% 29.97 in 10.0 mi WNW 15.0 mph - N/A   Clear
2:00 AM 50.0 °F - 37.4 °F 62% 29.96 in 10.0 mi NW 13.8 mph - N/A   Clear
2:20 AM 50.0 °F - 37.4 °F 62% 29.96 in 10.0 mi NW 9.2 mph - N/A   Clear
2:40 AM 50.0 °F - 37.4 °F 62% 29.95 in 10.0 mi NW 12.7 mph - N/A   Clear
3:00 AM 50.0 °F - 37.4 °F 62% 29.94 in 10.0 mi WNW 4.6 mph 11.5 mph N/A   Clear
3:20 AM 50.0 °F - 37.4 °F 62% 29.94 in 10.0 mi NW 11.5 mph - N/A   Clear
3:40 AM 50.0 °F - 37.4 °F 62% 29.94 in 10.0 mi NNW 9.2 mph - N/A   Clear
4:00 AM 48.2 °F - 35.6 °F 62% 29.94 in 10.0 mi NNW 5.8 mph - N/A   Clear
4:20 AM 48.2 °F - 37.4 °F 66% 29.94 in 10.0 mi NW 4.6 mph - N/A   Clear
4:40 AM 48.2 °F - 35.6 °F 62% 29.94 in 10.0 mi Calm Calm - N/A   Clear
5:00 AM 46.4 °F - 35.6 °F 66% 29.95 in 10.0 mi Calm Calm - N/A   Clear
5:20 AM 46.4 °F - 35.6 °F 66% 29.95 in 10.0 mi Calm Calm - N/A   Clear
5:40 AM 46.4 °F - 35.6 °F 66% 29.95 in 10.0 mi Calm Calm - N/A   Clear
6:00 AM 44.6 °F - 35.6 °F 71% 29.95 in 10.0 mi Calm Calm - N/A   Clear
6:20 AM 46.4 °F 45.2 °F 37.4 °F 71% 29.96 in 10.0 mi NNE 3.5 mph - N/A   Clear
6:40 AM 50.0 °F - 37.4 °F 62% 29.96 in 10.0 mi North 4.6 mph - N/A   Clear
7:00 AM 51.8 °F - 37.4 °F 58% 29.97 in 10.0 mi Calm Calm - N/A   Clear
7:20 AM 53.6 °F - 37.4 °F 54% 29.96 in 10.0 mi Calm Calm - N/A   Clear
7:40 AM 53.6 °F - 37.4 °F 54% 29.96 in 10.0 mi East 3.5 mph - N/A   Clear
8:00 AM 55.4 °F - 37.4 °F 51% 29.96 in 10.0 mi Calm Calm - N/A   Clear
8:20 AM 55.4 °F - 35.6 °F 47% 29.97 in 10.0 mi Calm Calm - N/A   Clear
8:40 AM 55.4 °F - 35.6 °F 47% 29.97 in 10.0 mi Calm Calm - N/A   Clear
9:00 AM 57.2 °F - 35.6 °F 44% 29.97 in 10.0 mi ESE 4.6 mph - N/A   Clear
9:20 AM 59.0 °F - 35.6 °F 42% 29.97 in 10.0 mi Variable 3.5 mph - N/A   Clear
9:40 AM 59.0 °F - 35.6 °F 42% 29.97 in 10.0 mi SE 3.5 mph - N/A   Clear
10:00 AM 60.8 °F - 35.6 °F 39% 29.97 in 10.0 mi ESE 3.5 mph - N/A   Clear
10:20 AM 60.8 °F - 35.6 °F 39% 29.97 in 10.0 mi SSE 4.6 mph - N/A   Clear
10:40 AM 62.6 °F - 35.6 °F 37% 29.97 in 10.0 mi Variable 4.6 mph - N/A   Clear
11:00 AM 62.6 °F - 35.6 °F 37% 29.96 in 10.0 mi Calm Calm - N/A   Clear
11:20 AM 64.4 °F - 33.8 °F 32% 29.96 in 10.0 mi Variable 6.9 mph - N/A   Clear
11:40 AM 64.4 °F - 33.8 °F 32% 29.96 in 10.0 mi Calm Calm - N/A   Clear
12:00 PM 66.2 °F - 32.0 °F 28% 29.95 in 10.0 mi Variable 4.6 mph 11.5 mph N/A   Clear
12:20 PM 68.0 °F - 32.0 °F 26% 29.94 in 10.0 mi Variable 6.9 mph 13.8 mph N/A   Clear
12:40 PM 68.0 °F - 32.0 °F 26% 29.93 in 10.0 mi Variable 4.6 mph 15.0 mph N/A   Clear
1:00 PM 69.8 °F - 30.2 °F 23% 29.93 in 10.0 mi SW 9.2 mph 20.7 mph N/A   Clear
1:20 PM 71.6 °F - 30.2 °F 22% 29.92 in 10.0 mi South 13.8 mph 20.7 mph N/A   Clear
1:40 PM 71.6 °F - 26.6 °F 19% 29.92 in 10.0 mi SSW 16.1 mph 24.2 mph N/A   Clear
2:00 PM 71.6 °F - 32.0 °F 23% 29.91 in 10.0 mi SSW 17.3 mph - N/A   Clear
2:20 PM 71.6 °F - 32.0 °F 23% 29.90 in 10.0 mi SSW 16.1 mph 24.2 mph N/A   Clear
2:40 PM 71.6 °F - 33.8 °F 25% 29.90 in 10.0 mi SSW 17.3 mph 25.3 mph N/A   Clear
3:00 PM 69.8 °F - 32.0 °F 25% 29.89 in 10.0 mi SSW 19.6 mph 25.3 mph N/A   Clear
3:20 PM 69.8 °F - 32.0 °F 25% 29.88 in 10.0 mi SW 19.6 mph - N/A   Clear
3:40 PM 71.6 °F - 37.4 °F 29% 29.88 in 10.0 mi West 18.4 mph 33.4 mph N/A   Clear
4:00 PM 69.8 °F - 35.6 °F 28% 29.87 in 10.0 mi WNW 17.3 mph 25.3 mph N/A   Clear
4:20 PM 69.8 °F - 35.6 °F 28% 29.87 in 10.0 mi WNW 15.0 mph 23.0 mph N/A   Clear
4:40 PM 68.0 °F - 35.6 °F 30% 29.87 in 10.0 mi West 18.4 mph 25.3 mph N/A   Clear
5:00 PM 68.0 °F - 35.6 °F 30% 29.87 in 10.0 mi West 23.0 mph 29.9 mph N/A   Clear
5:20 PM 66.2 °F - 35.6 °F 32% 29.87 in 10.0 mi West 18.4 mph 29.9 mph N/A   Clear
5:40 PM 66.2 °F - 35.6 °F 32% 29.87 in 10.0 mi WNW 17.3 mph - N/A   Clear
6:00 PM 64.4 °F - 35.6 °F 34% 29.86 in 10.0 mi WNW 16.1 mph - N/A   Clear
6:20 PM 62.6 °F - 39.2 °F 42% 29.86 in 10.0 mi West 17.3 mph - N/A   Clear
6:40 PM 62.6 °F - 39.2 °F 42% 29.86 in 10.0 mi WSW 12.7 mph 18.4 mph N/A   Clear
7:00 PM 59.0 °F - 42.8 °F 55% 29.86 in 10.0 mi SW 20.7 mph - N/A   Clear
7:20 PM 57.2 °F - 42.8 °F 59% 29.86 in 10.0 mi SW 17.3 mph 24.2 mph N/A   Clear
7:40 PM 57.2 °F - 42.8 °F 59% 29.86 in 10.0 mi SW 18.4 mph - N/A   Clear
8:00 PM 57.2 °F - 44.6 °F 63% 29.86 in 10.0 mi SW 15.0 mph 21.9 mph N/A   Clear
8:20 PM 55.4 °F - 44.6 °F 67% 29.85 in 10.0 mi SSW 16.1 mph - N/A   Scattered Clouds
8:40 PM 55.4 °F - 44.6 °F 67% 29.85 in 10.0 mi SSW 17.3 mph 24.2 mph N/A   Mostly Cloudy
9:00 PM 53.6 °F - 44.6 °F 72% 29.86 in 10.0 mi SSW 16.1 mph 21.9 mph N/A   Mostly Cloudy
9:20 PM 53.6 °F - 42.8 °F 67% 29.85 in 10.0 mi SSW 15.0 mph 23.0 mph N/A   Overcast
9:40 PM 53.6 °F - 41.0 °F 62% 29.85 in 10.0 mi SSW 11.5 mph 17.3 mph N/A   Overcast
10:00 PM 53.6 °F - 42.8 °F 67% 29.85 in 10.0 mi SSW 13.8 mph - N/A   Overcast
10:20 PM 53.6 °F - 44.6 °F 72% 29.85 in 10.0 mi SSW 17.3 mph 23.0 mph N/A   Overcast
10:40 PM 53.6 °F - 41.0 °F 62% 29.85 in 10.0 mi SSW 15.0 mph - N/A   Overcast
11:00 PM 53.6 °F - 42.8 °F 67% 29.84 in 10.0 mi SW 15.0 mph - N/A   Overcast
11:20 PM 53.6 °F - 44.6 °F 72% 29.84 in 10.0 mi West 13.8 mph 26.5 mph N/A   Overcast
11:40 PM 53.6 °F - 42.8 °F 67% 29.85 in 10.0 mi West 17.3 mph - N/A   Overcast